Weather History for KIML - May, 2014

Change the Weather History Date:

Tuesday, May 20, 2014

  Actual Average Record
Temperature  
Mean Temperature 68 °F 62 °F  
Max Temperature 83 °F 75 °F 100 °F (1934)
Min Temperature 53 °F 48 °F 21 °F (1931)
Degree Days  
Heating Degree Days 0 5  
Month to date heating degree days 215 160  
Cooling Degree Days 3 2  
Month to date cooling degree days 7 18  
Year to date cooling degree days 8 19  
Growing Degree Days 18 (Base 50)    
Moisture  
Dew Point 46 °F    
Average Humidity 53    
Maximum Humidity 83    
Minimum Humidity 23    
Precipitation  
Precipitation 0.00 in 0.09 in 1.95 in (1951)
Sea Level Pressure  
Sea Level Pressure 29.84 in    
Wind  
Wind Speed 13 mph (NE)    
Max Wind Speed 25 mph    
Max Gust Speed 33 mph    
Visibility 10 miles    
Events      
T = Trace of Precipitation, MM = Missing Value Source: NWS Daily Summary

Daily Weather History Graph

Daily Weather History Graph

Search for Another Location

Airport or City:

Trip Planner

Search our weather history database for the weather conditions in past years. The results will help you decide how hot, cold, wet, or windy it might be!

Date:

Astronomy

May. 20, 2014 Rise Set
Actual Time 5:25 AM MDT 8:01 PM MDT
Civil Twilight 4:54 AM MDT 8:32 PM MDT
Nautical Twilight 4:14 AM MDT 9:11 PM MDT
Astronomical Twilight 3:30 AM MDT 9:56 PM MDT
Moon 12:31 AM MDT (5/20) 11:35 AM MDT (5/20)
Length of Visible Light 15h 38m
Length of Day
14h 35m
Waning Gibbous, 59% of the Moon is Illuminated
May 20
Waning Gibbous
May 21
Last Quarter
May 28
New
Jun 5
First Quarter
Jun 12
Full

Hourly Weather History & Observations

Time (MDT) Temp. Dew Point Humidity Pressure Visibility Wind Dir Wind Speed Gust Speed Precip Events Conditions
12:53 AM 59.0 °F 50.0 °F 72% 29.72 in 10.0 mi North 13.8 mph - N/A   Clear
1:53 AM 57.9 °F 50.0 °F 75% 29.74 in 10.0 mi North 9.2 mph - N/A   Clear
2:53 AM 55.4 °F 48.2 °F 77% 29.85 in 10.0 mi Calm Calm - N/A   Clear
3:53 AM 54.0 °F 48.9 °F 83% 29.78 in 10.0 mi NW 4.6 mph - N/A   Scattered Clouds
4:53 AM 53.1 °F 48.0 °F 83% 29.79 in 10.0 mi North 12.7 mph - N/A   Clear
5:53 AM 53.6 °F 48.2 °F 82% 29.88 in 10.0 mi NNE 12.7 mph - N/A   Clear
6:53 AM 57.9 °F 48.9 °F 72% 29.83 in 10.0 mi North 12.7 mph - N/A   Clear
7:53 AM 60.1 °F 48.9 °F 67% 29.85 in 10.0 mi North 19.6 mph - N/A   Mostly Cloudy
8:53 AM 68.0 °F 46.9 °F 47% 29.84 in 10.0 mi NE 20.7 mph - N/A   Scattered Clouds
9:53 AM 72.0 °F 45.0 °F 38% 29.85 in 10.0 mi NE 20.7 mph 26.5 mph N/A   Partly Cloudy
10:53 AM 75.0 °F 42.1 °F 31% 29.86 in 10.0 mi NE 16.1 mph - N/A   Clear
11:53 AM 79.0 °F 39.9 °F 25% 29.86 in 10.0 mi NE 19.6 mph 25.3 mph N/A   Clear
12:53 PM 80.1 °F 39.0 °F 23% 29.85 in 10.0 mi NE 19.6 mph 26.5 mph N/A   Clear
1:53 PM 81.0 °F 41.0 °F 24% 29.85 in 10.0 mi NE 15.0 mph 25.3 mph N/A   Clear
2:53 PM 80.6 °F 42.8 °F 26% 29.92 in 10.0 mi ENE 16.1 mph 26.5 mph N/A   Clear
3:53 PM 82.0 °F 43.0 °F 25% 29.84 in 10.0 mi ENE 15.0 mph 23.0 mph N/A   Clear
4:53 PM 81.0 °F 43.0 °F 26% 29.83 in 10.0 mi East 15.0 mph - N/A   Clear
5:53 PM 80.1 °F 43.0 °F 27% 29.84 in 10.0 mi East 16.1 mph - N/A   Clear
6:53 PM 75.0 °F 46.0 °F 36% 29.86 in 10.0 mi ESE 12.7 mph - N/A   Partly Cloudy
7:53 PM 70.0 °F 48.0 °F 46% 29.88 in 10.0 mi ESE 10.4 mph - N/A   Clear
8:53 PM 66.9 °F 46.9 °F 49% 29.87 in 10.0 mi East 10.4 mph - N/A   Clear
9:53 PM 66.0 °F 48.0 °F 52% 29.92 in 10.0 mi SSE 5.8 mph - N/A   Clear
10:53 PM 64.0 °F 48.9 °F 58% 29.90 in 10.0 mi ESE 4.6 mph - N/A   Clear
11:53 PM 64.9 °F 45.0 °F 48% 29.84 in 10.0 mi East 19.6 mph - N/A   Clear